Estación Meteorológica de la Universidad de Murcia
Estación Meteorológica de la Universidad de Murcia
Universidad de Murcia
 

Temperatura y Humedad del sueloTemperatura y Humedad del suelo

 

Temperatura del suelo máxima: 24,4 ºC a las 13:28:00 del día 15/12/2017
Temperatura del suelo mínima: 7,5 ºC a las 08:43:00 del día 15/12/2017
Humedad del suelo máxima: 0 % a las 00:00:00 del día 15/12/2017
Humedad del suelo mínima: 999,9 % a las 00:00:00 del día 15/12/2017

||Temperatura del suelo máxima últimos meses|| ---- ||Temperatura del suelo mínima últimos meses||

----||Humedad del suelo máxima últimos meses|| ---- ||Humedad del suelo mínima últimos meses||


Temperatura del suelo máxima

  • 1 - 24,4 ºC del día 15/12/2017
  • 2 - 22 ºC del día 14/12/2017
  • 3 - 18,8 ºC del día 13/12/2017
  • 4 - 16,1 ºC del día 12/12/2017
  • 5 - 18,8 ºC del día 11/12/2017
  • 6 - 24,6 ºC del día 10/12/2017
  • 7 - 23 ºC del día 09/12/2017
  • 8 - 23,9 ºC del día 08/12/2017
  • 9 - 18,4 ºC del día 07/12/2017
  • 10 - 18,8 ºC del día 06/12/2017
  • 11 - 17,8 ºC del día 05/12/2017
  • 12 - 16,7 ºC del día 04/12/2017
  • 13 - 15,7 ºC del día 03/12/2017
  • 14 - 14,5 ºC del día 02/12/2017
  • 15 - 18,2 ºC del día 01/12/2017
  • 16 - 17,2 ºC del día 30/11/2017
  • 17 - 17 ºC del día 29/11/2017
  • 18 - 17,5 ºC del día 28/11/2017
  • 19 - 21,3 ºC del día 27/11/2017
  • 20 - 22,8 ºC del día 26/11/2017
  • 21 - 17,9 ºC del día 25/11/2017
  • 22 - 27,1 ºC del día 24/11/2017
  • 23 - 27,1 ºC del día 23/11/2017
  • 24 - 24,5 ºC del día 22/11/2017
  • 25 - 26,8 ºC del día 21/11/2017
  • 26 - 24,8 ºC del día 20/11/2017
  • 27 - 23,3 ºC del día 19/11/2017
  • 28 - 24,5 ºC del día 18/11/2017
  • 29 - 23,8 ºC del día 17/11/2017
  • 30 - 24,6 ºC del día 16/11/2017
  • 31 - 23,2 ºC del día 15/11/2017
  • 32 - 20,8 ºC del día 14/11/2017
  • 33 - 23,3 ºC del día 13/11/2017
  • 34 - 27,8 ºC del día 12/11/2017
  • 35 - 24,5 ºC del día 11/11/2017
  • 36 - 22 ºC del día 10/11/2017
  • 37 - 21,3 ºC del día 09/11/2017
  • 38 - 25,8 ºC del día 08/11/2017
  • 39 - 23,5 ºC del día 07/11/2017
  • 40 - 22,6 ºC del día 06/11/2017
  • 41 - 26,1 ºC del día 05/11/2017
  • 42 - 26,4 ºC del día 04/11/2017
  • 43 - 24,3 ºC del día 03/11/2017
  • 44 - 27,2 ºC del día 02/11/2017
  • 45 - 27,6 ºC del día 01/11/2017
  • 46 - 27,8 ºC del día 31/10/2017
  • 47 - 29,7 ºC del día 30/10/2017
  • 48 - 29,6 ºC del día 29/10/2017
  • 49 - 30,3 ºC del día 28/10/2017
  • 50 - 33,1 ºC del día 27/10/2017
  • 51 - 31,7 ºC del día 26/10/2017
  • 52 - 31,9 ºC del día 25/10/2017
  • 53 - 30,4 ºC del día 24/10/2017
  • 54 - 29,5 ºC del día 23/10/2017
  • 55 - 31 ºC del día 22/10/2017
  • 56 - 31,8 ºC del día 21/10/2017
  • 57 - 29,7 ºC del día 20/10/2017
  • 58 - 26 ºC del día 19/10/2017
  • 59 - 70 ºC del día 18/10/2017
  • 60 - 30,7 ºC del día 17/10/2017

||Volver al inicio de la página||


Temperatura del suelo mínima

  • 1 - 7,5 ºC del día 15/12/2017
  • 2 - 3,6 ºC del día 14/12/2017
  • 3 - 1 ºC del día 13/12/2017
  • 4 - 3,2 ºC del día 12/12/2017
  • 5 - 3,8 ºC del día 11/12/2017
  • 6 - 7,9 ºC del día 10/12/2017
  • 7 - 6,2 ºC del día 09/12/2017
  • 8 - 3,2 ºC del día 08/12/2017
  • 9 - 2,4 ºC del día 07/12/2017
  • 10 - 3,9 ºC del día 06/12/2017
  • 11 - -1 ºC del día 05/12/2017
  • 12 - -1,1 ºC del día 04/12/2017
  • 13 - 2,1 ºC del día 03/12/2017
  • 14 - 1,6 ºC del día 02/12/2017
  • 15 - 2,6 ºC del día 01/12/2017
  • 16 - 3,1 ºC del día 30/11/2017
  • 17 - 11,9 ºC del día 29/11/2017
  • 18 - 9,2 ºC del día 28/11/2017
  • 19 - 9,9 ºC del día 27/11/2017
  • 20 - 8,2 ºC del día 26/11/2017
  • 21 - 6,6 ºC del día 25/11/2017
  • 22 - 6,4 ºC del día 24/11/2017
  • 23 - 4,2 ºC del día 23/11/2017
  • 24 - 5,3 ºC del día 22/11/2017
  • 25 - 6 ºC del día 21/11/2017
  • 26 - -30 ºC del día 20/11/2017
  • 27 - 6,4 ºC del día 19/11/2017
  • 28 - 5,8 ºC del día 18/11/2017
  • 29 - 5,7 ºC del día 17/11/2017
  • 30 - 3,8 ºC del día 16/11/2017
  • 31 - 3,4 ºC del día 15/11/2017
  • 32 - 5,5 ºC del día 14/11/2017
  • 33 - 9 ºC del día 13/11/2017
  • 34 - 7 ºC del día 12/11/2017
  • 35 - 6,6 ºC del día 11/11/2017
  • 36 - 6,9 ºC del día 10/11/2017
  • 37 - 6,9 ºC del día 09/11/2017
  • 38 - 4,7 ºC del día 08/11/2017
  • 39 - 7,2 ºC del día 07/11/2017
  • 40 - 7,4 ºC del día 06/11/2017
  • 41 - 10 ºC del día 05/11/2017
  • 42 - 13,8 ºC del día 04/11/2017
  • 43 - 13,1 ºC del día 03/11/2017
  • 44 - 12,9 ºC del día 02/11/2017
  • 45 - 13,5 ºC del día 01/11/2017
  • 46 - 12,6 ºC del día 31/10/2017
  • 47 - 10,8 ºC del día 30/10/2017
  • 48 - 14,4 ºC del día 29/10/2017
  • 49 - 12,6 ºC del día 28/10/2017
  • 50 - 9,1 ºC del día 27/10/2017
  • 51 - 12,2 ºC del día 26/10/2017
  • 52 - 11,3 ºC del día 25/10/2017
  • 53 - 12,6 ºC del día 24/10/2017
  • 54 - 14 ºC del día 23/10/2017
  • 55 - 14,9 ºC del día 22/10/2017
  • 56 - 13 ºC del día 21/10/2017
  • 57 - 12,7 ºC del día 20/10/2017
  • 58 - 13,3 ºC del día 19/10/2017
  • 59 - -30 ºC del día 18/10/2017
  • 60 - 14,8 ºC del día 17/10/2017

||Volver al inicio de la página||


Humedad del suelo máxima

  • 1 - 0 % del día 15/12/2017
  • 2 - 0 % del día 14/12/2017
  • 3 - 0 % del día 13/12/2017
  • 4 - 0 % del día 12/12/2017
  • 5 - 0 % del día 11/12/2017
  • 6 - 0 % del día 10/12/2017
  • 7 - 0 % del día 09/12/2017
  • 8 - 0 % del día 08/12/2017
  • 9 - 0 % del día 07/12/2017
  • 10 - 0 % del día 06/12/2017
  • 11 - 0 % del día 05/12/2017
  • 12 - 0 % del día 04/12/2017
  • 13 - 0 % del día 03/12/2017
  • 14 - 0 % del día 02/12/2017
  • 15 - 0 % del día 01/12/2017
  • 16 - 0 % del día 30/11/2017
  • 17 - 0 % del día 29/11/2017
  • 18 - 0 % del día 28/11/2017
  • 19 - 0 % del día 27/11/2017
  • 20 - 0 % del día 26/11/2017
  • 21 - 0 % del día 25/11/2017
  • 22 - 0 % del día 24/11/2017
  • 23 - 0 % del día 23/11/2017
  • 24 - 0 % del día 22/11/2017
  • 25 - 0 % del día 21/11/2017
  • 26 - 26,9 % del día 20/11/2017
  • 27 - 0 % del día 19/11/2017
  • 28 - 0 % del día 18/11/2017
  • 29 - 0 % del día 17/11/2017
  • 30 - 0 % del día 16/11/2017
  • 31 - 0 % del día 15/11/2017
  • 32 - 0 % del día 14/11/2017
  • 33 - 0 % del día 13/11/2017
  • 34 - 0 % del día 12/11/2017
  • 35 - 0 % del día 11/11/2017
  • 36 - 0 % del día 10/11/2017
  • 37 - 0 % del día 09/11/2017
  • 38 - 0 % del día 08/11/2017
  • 39 - 31,5 % del día 07/11/2017
  • 40 - 40,8 % del día 06/11/2017
  • 41 - 33,5 % del día 05/11/2017
  • 42 - 34,4 % del día 04/11/2017
  • 43 - 34,8 % del día 03/11/2017
  • 44 - 35,1 % del día 02/11/2017
  • 45 - 35,6 % del día 01/11/2017
  • 46 - 36,2 % del día 31/10/2017
  • 47 - 35,9 % del día 30/10/2017
  • 48 - 37,5 % del día 29/10/2017
  • 49 - 37,7 % del día 28/10/2017
  • 50 - 38,3 % del día 27/10/2017
  • 51 - 38,9 % del día 26/10/2017
  • 52 - 40,6 % del día 25/10/2017
  • 53 - 42 % del día 24/10/2017
  • 54 - 43,5 % del día 23/10/2017
  • 55 - 43,4 % del día 22/10/2017
  • 56 - 45,9 % del día 21/10/2017
  • 57 - 45,9 % del día 20/10/2017
  • 58 - 46,7 % del día 19/10/2017
  • 59 - 43,2 % del día 18/10/2017
  • 60 - 34,5 % del día 17/10/2017

||Volver al inicio de la página||


Humedad del suelo mínima

  • 1 - 999,9 % del día 15/12/2017
  • 2 - 999,9 % del día 14/12/2017
  • 3 - 999,9 % del día 13/12/2017
  • 4 - 999,9 % del día 12/12/2017
  • 5 - 999,9 % del día 11/12/2017
  • 6 - 999,9 % del día 10/12/2017
  • 7 - 999,9 % del día 09/12/2017
  • 8 - 999,9 % del día 08/12/2017
  • 9 - 999,9 % del día 07/12/2017
  • 10 - 999,9 % del día 06/12/2017
  • 11 - 999,9 % del día 05/12/2017
  • 12 - 999,9 % del día 04/12/2017
  • 13 - 999,9 % del día 03/12/2017
  • 14 - 999,9 % del día 02/12/2017
  • 15 - 999,9 % del día 01/12/2017
  • 16 - 999,9 % del día 30/11/2017
  • 17 - 999,9 % del día 29/11/2017
  • 18 - 999,9 % del día 28/11/2017
  • 19 - 999,9 % del día 27/11/2017
  • 20 - 999,9 % del día 26/11/2017
  • 21 - 999,9 % del día 25/11/2017
  • 22 - 999,9 % del día 24/11/2017
  • 23 - 999,9 % del día 23/11/2017
  • 24 - 999,9 % del día 22/11/2017
  • 25 - 999,9 % del día 21/11/2017
  • 26 - 18,1 % del día 20/11/2017
  • 27 - 999,9 % del día 19/11/2017
  • 28 - 999,9 % del día 18/11/2017
  • 29 - 999,9 % del día 17/11/2017
  • 30 - 999,9 % del día 16/11/2017
  • 31 - 999,9 % del día 15/11/2017
  • 32 - 999,9 % del día 14/11/2017
  • 33 - 999,9 % del día 13/11/2017
  • 34 - 999,9 % del día 12/11/2017
  • 35 - 999,9 % del día 11/11/2017
  • 36 - 999,9 % del día 10/11/2017
  • 37 - 999,9 % del día 09/11/2017
  • 38 - 999,9 % del día 08/11/2017
  • 39 - 18,9 % del día 07/11/2017
  • 40 - 19,3 % del día 06/11/2017
  • 41 - 19,5 % del día 05/11/2017
  • 42 - 19,8 % del día 04/11/2017
  • 43 - 19,8 % del día 03/11/2017
  • 44 - 20,1 % del día 02/11/2017
  • 45 - 20,3 % del día 01/11/2017
  • 46 - 20,4 % del día 31/10/2017
  • 47 - 20,7 % del día 30/10/2017
  • 48 - 21,2 % del día 29/10/2017
  • 49 - 21,3 % del día 28/10/2017
  • 50 - 21,5 % del día 27/10/2017
  • 51 - 22,1 % del día 26/10/2017
  • 52 - 22,8 % del día 25/10/2017
  • 53 - 23,2 % del día 24/10/2017
  • 54 - 23,8 % del día 23/10/2017
  • 55 - 24,6 % del día 22/10/2017
  • 56 - 24,9 % del día 21/10/2017
  • 57 - 25,1 % del día 20/10/2017
  • 58 - 24,6 % del día 19/10/2017
  • 59 - 0 % del día 18/10/2017
  • 60 - 19,3 % del día 17/10/2017

 

|| Temperatura Ambiente|| Humedad relativa|| Velocidad y dirección del viento|| Precipitación|| Radiación Solar Global y PAR|| Presión atmosférica|| Más información|| Volver a la página principal|| Volver al inicio de la página||


Estación Meteorológica de la Universidad de Murcia
http://estacion.um.es/
Informacion actualizada a: 16/12/2017 a las 06:05:00